Weather in Dzaoudzi

Mayotte     12°46′58″S   45°13′51″E
temp.,
°C
wind,
m/s
gust,
m/s
humid.,
%
clouds,
%
prec.,
mm/h
press.,
hPa
HPBL,
m
29 june, wed
wed2900:00+25se1313675 0.3 10191262
03:00+24se12126613 0.3 10181397
06:00+24se11116610 0.0 10181177
09:00+24se996562 0.0 10201300
12:00+24se876413 0.0 10191105
15:00+24sse65656 0.0 1018966
18:00+24sse446295 0.0 1019862
21:00+25s34577 0.0 1020871
30 june, thu
thu3000:00+25sse586421 0.0 10191144
03:00+24sse896910 0.0 10171110
06:00+24sse776824 0.0 10181214
09:00+25sse676395 0.1 10201463
12:00+25se88655 0.1 10181238
15:00+25se88683 0.2 10171186
18:00+25se77640 0.0 10181093
21:00+26se57645 0.0 1019846
1 july, fri
fri100:00+25se810685 0.0 10191123
03:00+24sse1012694 0.0 10181190
06:00+24sse910691 0.0 10191115
09:00+25sse10116892 0.0 10201339
12:00+25se10106623 0.1 10191439
15:00+25se99687 0.1 10181209
18:00+25se78615 0.0 1018980
21:00+25s56640 0.0 1020704
2 july, sat
sat200:00+25sse79675 0.0 10191220
03:00+25se996952 0.0 10181244
06:00+25sse776596 0.0 10181382
09:00+25se66702 0.1 1020998
12:00+25se987010 0.1 10191055
15:00+25se88699 0.1 10171036
18:00+25se77624 0.0 1018930
21:00+25sse476674 0.0 1020633
3 july, sun
sun300:00+25se9106785 0.1 10201198
03:00+25sse10116986 0.1 10181265
06:00+25se91065100 0.0 10191457
09:00+25se99694 0.1 10201164
12:00+25se996938 0.0 10191171
15:00+25se886688 0.0 10171266
18:00+25se68654 0.0 1018865
21:00+25se59655 0.0 1019983